軌道要素
Epoch 2016 Apr. 2.0 TT = JDT 2457480.5
T 2016 Apr. 2.02382 TT MPC
q 2.0105598 (2000.0) P Q
n 0.15529377 Peri. 181.86170 -0.77261043 +0.57726118
a 3.4279412 Node 37.72505 -0.57676761 -0.46420941
e 0.4134789 Incl. 25.58921 -0.26535305 -0.67177314
P 6.35
From 192 observations 1985 June 13-2010 July 12, mean residual 0".8.
Nongravitational parameters A1 = +0.21, A2 = -0.0030.
|